Location: Bucharest
(44.4268°N, 26.1025°E)
Time: 06:24:51
(UTC+03:00)

Oscar 19 - Pass Details

Date: 09 July 2022
Orbit: 773 x 790 km, 98.8° (Epoch: 14 August)

Event Time Altitude Azimuth Distance (km) Brightness Sun altitude
Rises 04:06:17 0° 23° (NNE) 3,260 15.5 -13.2°
Reaches altitude 10° 04:08:50 10° 33° (NNE) 2,328 14.6 -13.0°
Maximum altitude 04:13:25 32° 96° (E) 1,303 12.2 -12.4°
Drops below altitude 10° 04:17:58 10° 160° (SSE) 2,317 12.8 -11.9°
Enters shadow 04:20:29 - 170° (S) 3,235 13.5 -11.6°
